This is the latest recevied weather packets stored in our database for station/object K5SVV. If no packets are shown the sender has not sent any weather packets the latest 10 day(s).
| Time | Temp. | Humidity | Pressure | Rain* | Wind** | Luminosity | Snow |
|---|---|---|---|---|---|---|---|
| 1788639285 | 37.22° C | 43% | 1011.4 hPa | 0 mm | - | 730 W/m² | - |
| 1788638984 | 37.78° C | 42% | 1011.3 hPa | 0 mm | - | 744 W/m² | - |
| 1788638681 | 37.22° C | 42% | 1011.4 hPa | 0 mm | - | 734 W/m² | - |
| 1788638379 | 37.22° C | 44% | 1011.6 hPa | 0 mm | - | 724 W/m² | - |
| 1788638074 | 37.78° C | 42% | 1011.9 hPa | 0 mm | - | 732 W/m² | - |
| 1788637770 | 37.22° C | 43% | 1011.9 hPa | 0 mm | - | 716 W/m² | - |
| 1788637468 | 37.22° C | 43% | 1011.8 hPa | 0 mm | - | 690 W/m² | - |
| 1788637163 | 36.67° C | 45% | 1011.9 hPa | 0 mm | - | 738 W/m² | - |
| 1788636858 | 36.67° C | 45% | 1012 hPa | 0 mm | - | 744 W/m² | - |
| 1788636553 | 37.22° C | 44% | 1012.1 hPa | 0 mm | - | 757 W/m² | - |
| 1788636248 | 37.22° C | 45% | 1012.2 hPa | 0 mm | - | 804 W/m² | - |
| 1788635943 | 36.11° C | 45% | 1012.2 hPa | 0 mm | - | 828 W/m² | - |
| 1788635642 | 36.11° C | 46% | 1012.3 hPa | 0 mm | - | 460 W/m² | - |
| 1788635341 | 35.56° C | 47% | 1012.6 hPa | 0 mm | - | 803 W/m² | - |
| 1788635035 | 35.56° C | 47% | 1012.3 hPa | 0 mm | - | 870 W/m² | - |
| 1788634733 | 35.56° C | 47% | 1012.5 hPa | 0 mm | - | 885 W/m² | - |
| 1788634429 | 35° C | 48% | 1012.7 hPa | 0 mm | - | 288 W/m² | - |
| 1788634128 | 36.11° C | 47% | 1012.8 hPa | 0 mm | - | 205 W/m² | - |
| 1788633828 | 36.11° C | 48% | 1012.8 hPa | 0 mm | - | 282 W/m² | - |
| 1788633526 | 36.11° C | 47% | 1013 hPa | 0 mm | - | 873 W/m² | - |
| 1788633249 | 35.56° C | 47% | 1012.9 hPa | 0 mm | - | 739 W/m² | - |
| 1788632921 | 35.56° C | 47% | 1013 hPa | 0 mm | - | 855 W/m² | - |
| 1788632615 | 35° C | 50% | 1013.1 hPa | 0 mm | - | 826 W/m² | - |
| 1788632312 | 35° C | 49% | 1013.2 hPa | 0 mm | - | 494 W/m² | - |
| 1788632011 | 35.56° C | 48% | 1013.4 hPa | 0 mm | - | 181 W/m² | - |
* Rain latest hour (hover to see other rain measurements)
** Current wind speed in m/s (hover to see current wind gust speed)